When you browse on this site, cookies collect data to enhance your experience and personalize the content and advertising you see.
Visit our Privacy Policy to learn more. By continuing to use the site, you agree to this use of cookies and data.
  • In Hungary
  • List of Countries
  • For 7 days
  • Water Temperature
  • Weather Map
  • News
  • Weather Widgets
  • user-avatar
    Login

    Hourly Weather Reading

    Today, 26 May, Tuesday

    Time Temperature Precipitation Wind Pressure Humidity
    00:00 +13°C° 0 mm 1 mps 772 mmHg 90%
    01:00 +12°C° 0 mm 1 mps 772 mmHg 89%
    02:00 +12°C° 0 mm 1 mps 772 mmHg 88%
    03:00 +11°C° 0 mm 1 mps 772 mmHg 87%
    04:00 +12°C° 0 mm 1 mps 772 mmHg 84%
    05:00 +13°C° 0 mm 1 mps 772 mmHg 81%
    06:00 +14°C° 0 mm 1 mps 773 mmHg 78%
    07:00 +16°C° 0 mm 1 mps 773 mmHg 73%
    08:00 +18°C° 0 mm 1 mps 773 mmHg 67%
    09:00 +19°C° 0 mm 2 mps 773 mmHg 62%
    10:00 +20°C° 0 mm 2 mps 773 mmHg 59%
    11:00 +21°C° 0 mm 2 mps 773 mmHg 55%
    12:00 +21°C° 0 mm 2 mps 773 mmHg 52%
    13:00 +21°C° 0 mm 2 mps 773 mmHg 53%
    14:00 +23°C° 0 mm 2 mps 773 mmHg 55%
    15:00 +23°C° 0 mm 2 mps 773 mmHg 57%
    16:00 +21°C° 0 mm 2 mps 773 mmHg 62%
    17:00 +21°C° 0 mm 2 mps 772 mmHg 67%
    18:00 +20°C° 0 mm 2 mps 772 mmHg 73%
    19:00 +19°C° 0 mm 2 mps 772 mmHg 78%
    20:00 +18°C° 0 mm 1 mps 773 mmHg 83%
    21:00 +16°C° 0 mm 1 mps 773 mmHg 88%
    22:00 +16°C° 0 mm 1 mps 773 mmHg 89%
    23:00 +15°C° 0 mm 2 mps 773 mmHg 91%

    Tomorrow, 27 May, Wednesday

    Time Temperature Precipitation Wind Pressure Humidity
    00:00 +15°C° 0 mm 2 mps 773 mmHg 92%
    01:00 +14°C° 0 mm 2 mps 773 mmHg 91%
    02:00 +14°C° 0 mm 2 mps 773 mmHg 91%
    03:00 +14°C° 0 mm 2 mps 772 mmHg 90%
    04:00 +14°C° 0 mm 2 mps 772 mmHg 88%
    05:00 +15°C° 0 mm 2 mps 773 mmHg 85%
    06:00 +15°C° 0 mm 2 mps 773 mmHg 83%
    07:00 +16°C° 0 mm 2 mps 773 mmHg 79%
    08:00 +18°C° 0 mm 2 mps 773 mmHg 74%
    09:00 +19°C° 0 mm 2 mps 773 mmHg 70%
    10:00 +20°C° 0 mm 2 mps 773 mmHg 67%
    11:00 +21°C° 0 mm 3 mps 773 mmHg 64%
    12:00 +22°C° 0 mm 3 mps 773 mmHg 62%
    13:00 +22°C° 0 mm 3 mps 773 mmHg 62%
    14:00 +22°C° 0 mm 3 mps 773 mmHg 62%
    15:00 +21°C° 0 mm 3 mps 772 mmHg 62%
    16:00 +21°C° 0 mm 3 mps 772 mmHg 65%
    17:00 +21°C° 0 mm 2 mps 772 mmHg 68%
    18:00 +20°C° 0 mm 2 mps 772 mmHg 71%
    19:00 +18°C° 0 mm 2 mps 772 mmHg 75%
    20:00 +17°C° 0 mm 3 mps 773 mmHg 80%
    21:00 +14°C° 0 mm 3 mps 773 mmHg 85%
    22:00 +13°C° 0 mm 3 mps 773 mmHg 84%
    23:00 +13°C° 0 mm 2 mps 773 mmHg 83%

    Day after tomorrow, 28 May, Thursday

    Time Temperature Precipitation Wind Pressure Humidity
    00:00 +12°C° 0 mm 2 mps 773 mmHg 82%
    01:00 +12°C° 0 mm 2 mps 773 mmHg 83%
    02:00 +10°C° 0 mm 2 mps 773 mmHg 84%
    03:00 +9°C° 0 mm 2 mps 772 mmHg 84%
    04:00 +10°C° 0 mm 2 mps 772 mmHg 82%
    05:00 +11°C° 0 mm 3 mps 772 mmHg 79%
    06:00 +11°C° 0 mm 3 mps 772 mmHg 77%
    07:00 +13°C° 0 mm 3 mps 772 mmHg 71%
    08:00 +14°C° 0 mm 4 mps 772 mmHg 66%
    09:00 +17°C° 0 mm 4 mps 772 mmHg 60%
    10:00 +18°C° 0 mm 4 mps 772 mmHg 57%
    11:00 +19°C° 0 mm 4 mps 772 mmHg 55%
    12:00 +20°C° 0 mm 5 mps 771 mmHg 52%
    13:00 +20°C° 0 mm 5 mps 771 mmHg 51%
    14:00 +20°C° 0 mm 5 mps 770 mmHg 51%
    15:00 +20°C° 0 mm 5 mps 770 mmHg 51%
    16:00 +19°C° 0 mm 5 mps 770 mmHg 55%
    17:00 +18°C° 0 mm 4 mps 770 mmHg 58%
    18:00 +17°C° 0 mm 4 mps 770 mmHg 62%
    19:00 +14°C° 0 mm 4 mps 770 mmHg 64%
    20:00 +13°C° 0 mm 4 mps 770 mmHg 65%
    21:00 +11°C° 0 mm 3 mps 770 mmHg 67%
    22:00 +10°C° 0 mm 3 mps 769 mmHg 69%
    23:00 +9°C° 0 mm 3 mps 769 mmHg 72%

    29 May, Friday

    Time Temperature Precipitation Wind Pressure Humidity
    00:00 +8°C° 0 mm 3 mps 769 mmHg 74%
    01:00 +8°C° 0 mm 3 mps 769 mmHg 78%
    02:00 +8°C° 0 mm 3 mps 769 mmHg 82%
    03:00 +8°C° 0 mm 3 mps 768 mmHg 85%
    04:00 +9°C° 0 mm 3 mps 768 mmHg 84%
    05:00 +10°C° 0 mm 3 mps 768 mmHg 82%
    06:00 +11°C° 0 mm 3 mps 768 mmHg 80%
    07:00 +13°C° 0 mm 4 mps 768 mmHg 74%
    08:00 +15°C° 0 mm 4 mps 768 mmHg 67%
    09:00 +18°C° 0 mm 4 mps 767 mmHg 61%
    10:00 +19°C° 0 mm 4 mps 767 mmHg 58%
    11:00 +20°C° 0 mm 4 mps 767 mmHg 54%
    12:00 +21°C° 0 mm 4 mps 767 mmHg 51%
    13:00 +21°C° 0 mm 4 mps 766 mmHg 50%
    14:00 +21°C° 0 mm 4 mps 766 mmHg 49%
    15:00 +21°C° 0 mm 4 mps 766 mmHg 48%
    16:00 +21°C° 0 mm 4 mps 765 mmHg 53%
    17:00 +20°C° 0 mm 4 mps 765 mmHg 57%
    18:00 +19°C° 0 mm 3 mps 765 mmHg 61%
    19:00 +16°C° 0 mm 3 mps 765 mmHg 63%
    20:00 +13°C° 0 mm 3 mps 765 mmHg 65%
    21:00 +11°C° 0 mm 3 mps 765 mmHg 66%
    22:00 +10°C° 0 mm 3 mps 765 mmHg 70%
    23:00 +10°C° 0 mm 3 mps 765 mmHg 73%

    30 May, Saturday

    Time Temperature Precipitation Wind Pressure Humidity
    00:00 +9°C° 0 mm 3 mps 765 mmHg 77%
    01:00 +9°C° 0 mm 2 mps 765 mmHg 82%
    02:00 +9°C° 0 mm 2 mps 765 mmHg 87%
    03:00 +9°C° 0 mm 2 mps 765 mmHg 92%
    04:00 +12°C° 0 mm 2 mps 765 mmHg 90%
    05:00 +12°C° 0 mm 3 mps 765 mmHg 88%
    06:00 +13°C° 0 mm 3 mps 765 mmHg 86%
    07:00 +14°C° 0 mm 3 mps 765 mmHg 81%
    08:00 +17°C° 0 mm 3 mps 765 mmHg 75%
    09:00 +19°C° 0 mm 4 mps 765 mmHg 69%
    10:00 +20°C° 0 mm 4 mps 765 mmHg 66%
    11:00 +21°C° 0 mm 4 mps 765 mmHg 63%
    12:00 +22°C° 0 mm 4 mps 764 mmHg 60%
    13:00 +22°C° 0 mm 4 mps 764 mmHg 60%
    14:00 +23°C° 0 mm 4 mps 764 mmHg 59%
    15:00 +23°C° 0 mm 4 mps 764 mmHg 58%
    16:00 +22°C° 0 mm 4 mps 763 mmHg 62%
    17:00 +21°C° 0 mm 3 mps 763 mmHg 65%
    18:00 +20°C° 0 mm 3 mps 763 mmHg 68%
    19:00 +18°C° 0 mm 3 mps 763 mmHg 72%
    20:00 +16°C° 0 mm 2 mps 763 mmHg 75%
    21:00 +14°C° 0 mm 2 mps 764 mmHg 79%
    22:00 +13°C° 0 mm 2 mps 763 mmHg 80%
    23:00 +13°C° 0 mm 2 mps 763 mmHg 82%

    31 May, Sunday

    Time Temperature Precipitation Wind Pressure Humidity
    00:00 +12°C° 0 mm 2 mps 763 mmHg 84%
    01:00 +10°C° 0 mm 2 mps 763 mmHg 86%
    02:00 +10°C° 0 mm 2 mps 763 mmHg 88%
    03:00 +9°C° 0 mm 2 mps 763 mmHg 90%
    04:00 +10°C° 0 mm 2 mps 763 mmHg 89%
    05:00 +12°C° 0 mm 2 mps 763 mmHg 87%
    06:00 +12°C° 0 mm 2 mps 763 mmHg 85%
    07:00 +15°C° 0 mm 2 mps 763 mmHg 80%
    08:00 +17°C° 0 mm 3 mps 763 mmHg 75%
    09:00 +19°C° 0 mm 3 mps 763 mmHg 70%
    10:00 +20°C° 0 mm 3 mps 763 mmHg 67%
    11:00 +21°C° 0 mm 3 mps 762 mmHg 63%
    12:00 +22°C° 0 mm 3 mps 762 mmHg 59%
    13:00 +22°C° 0 mm 3 mps 762 mmHg 60%
    14:00 +22°C° 0 mm 3 mps 762 mmHg 60%
    15:00 +24°C° 0 mm 3 mps 761 mmHg 60%
    16:00 +22°C° 0 mm 3 mps 761 mmHg 64%
    17:00 +21°C° 0 mm 3 mps 761 mmHg 68%
    18:00 +20°C° 0 mm 3 mps 761 mmHg 72%
    19:00 +19°C° 0 mm 3 mps 761 mmHg 72%
    20:00 +17°C° 0 mm 3 mps 761 mmHg 73%
    21:00 +14°C° 0 mm 3 mps 761 mmHg 73%
    22:00 +14°C° 0 mm 3 mps 761 mmHg 74%
    23:00 +13°C° 0 mm 3 mps 761 mmHg 75%
    Show more